GFSGL_925_spd_060.txt.gz
Wind_Speed
23 23 21 23 21 20 23 25 26 25 26 25 24 26 27 30 34 35 30 28 28 26 22 22 23 20 15 14 14 14 17 8 4 2 8 8 7 5 6 2 5 4 7
21 22 20 21 21 21 24 24 24 25 25 24 23 29 31 33 31 30 30 27 27 27 25 20 21 18 18 13 11 12 10 10 11 4 11 8 5 5 5 4 5 4 9
20 19 21 24 24 24 25 25 26 27 26 26 26 27 28 31 32 32 31 29 27 28 24 24 21 20 18 15 13 10 15 13 11 8 8 8 5 3 4 4 7 5 3
29 24 24 23 20 20 23 26 28 29 28 27 27 29 29 32 31 30 28 29 25 28 24 25 21 19 19 17 13 13 13 12 11 10 9 10 6 2 3 2 5 7 8
31 26 24 22 17 20 27 29 29 28 28 29 28 29 30 30 29 30 30 29 25 23 22 21 19 19 19 15 14 14 13 8 8 10 8 7 9 6 6 5 6 9 8
27 27 27 27 20 21 28 29 32 31 30 28 29 28 28 29 29 32 32 27 22 23 21 19 16 17 17 16 15 14 13 11 7 6 10 10 11 11 10 10 12 9 2
27 28 26 26 27 21 27 28 29 28 33 31 29 28 28 32 26 32 33 25 23 22 21 19 14 15 17 16 13 10 10 9 8 9 10 11 12 14 13 12 14 13 4
28 28 28 26 30 24 26 28 31 29 29 29 29 28 29 26 26 33 32 25 21 18 18 19 20 17 20 17 14 11 9 8 8 6 7 7 10 13 15 13 11 8 7
28 28 22 41 32 30 27 27 28 28 30 25 27 26 28 21 25 34 31 22 19 17 17 17 20 17 20 18 16 15 12 11 10 9 6 10 10 12 13 12 11 12 5
27 30 29 29 33 31 30 28 30 31 24 22 27 27 24 28 33 34 27 20 19 17 17 17 19 17 21 19 16 16 15 15 12 9 9 10 9 11 13 11 11 11 8
26 30 31 35 33 30 32 29 26 25 23 23 27 23 26 33 32 32 26 22 24 21 19 12 10 10 14 16 17 15 17 18 15 12 11 9 9 8 11 11 10 9 9
29 30 33 34 27 26 26 27 26 27 23 25 24 23 22 28 33 32 23 15 26 19 16 15 13 12 13 12 12 13 13 18 19 17 14 12 11 11 10 9 8 7 1
27 30 31 31 29 30 29 27 25 25 27 26 27 22 24 23 27 26 16 20 19 19 21 20 16 14 12 11 10 9 15 20 18 16 13 13 10 11 10 8 6 7 3
29 29 27 30 29 28 28 29 27 27 28 30 26 20 23 22 25 25 23 23 23 24 22 20 19 17 12 14 14 13 15 14 14 15 10 10 8 8 9 7 7 6 5
29 28 28 26 26 28 30 26 31 35 34 29 25 27 25 22 23 25 24 22 24 25 24 23 19 15 13 14 11 10 11 12 11 11 10 10 8 8 7 6 6 7 8
24 25 25 23 24 24 17 8 14 26 34 31 28 28 25 25 28 26 24 24 24 22 22 18 15 14 14 14 14 12 12 12 11 12 12 11 11 8 7 5 3 5 7
29 25 22 22 20 24 23 13 8 34 34 31 27 28 29 36 31 26 26 26 21 21 19 16 14 15 15 16 13 13 11 13 11 10 10 10 7 6 6 3 3 3 4
18 20 20 21 27 28 24 24 25 24 20 22 34 37 37 34 31 28 28 26 22 12 17 15 15 15 15 14 15 14 12 11 9 8 8 9 8 7 5 4 2 3 1
15 17 26 28 36 29 28 28 29 27 25 25 31 33 32 31 29 25 24 20 15 14 14 15 14 15 15 13 12 11 10 9 8 7 7 7 7 6 5 4 4 3 4
20 26 28 29 27 25 26 27 26 25 23 22 22 24 30 28 22 17 17 16 15 14 15 16 15 15 13 12 12 11 10 9 8 6 5 7 6 6 3 5 4 3 6
24 28 31 28 26 28 25 24 25 24 24 22 22 21 20 20 17 17 18 17 19 16 16 18 15 14 13 11 10 8 8 9 8 7 8 7 6 4 3 3 2 3 4
25 25 25 24 24 24 25 26 27 26 24 22 25 28 25 22 22 24 23 21 22 22 22 23 21 20 17 14 7 6 7 8 9 9 8 7 5 3 3 4 7 11 11
21 20 25 25 30 33 29 27 26 25 24 24 24 23 23 22 24 27 26 25 27 23 19 20 18 17 17 19 16 16 16 13 9 8 9 9 12 15 13 13 11 13 13
26 27 28 26 26 26 27 26 26 26 25 23 23 22 23 23 26 28 27 24 22 21 21 19 18 19 19 16 15 15 15 13 15 16 17 17 17 16 16 16 18 18 16
24 25 26 27 25 26 28 25 25 24 23 23 22 22 23 24 24 27 29 25 23 21 18 18 18 17 15 15 15 15 12 13 14 12 15 17 19 18 20 21 20 18 17
25 25 24 26 27 26 25 24 24 24 24 23 23 23 24 25 24 23 24 24 23 24 27 25 24 23 23 23 21 18 16 14 20 24 25 23 22 21 20 22 20 19 17

GFSGL_925_spd_063.txt.gz
Wind_Speed
23 23 23 23 24 24 23 23 23 23 25 27 27 27 27 30 32 38 45 40 41 37 38 33 38 35 28 27 24 20 17 15 5 6 6 10 8 7 7 6 4 6 6
7 20 25 29 29 30 26 26 24 25 26 28 28 29 28 29 31 37 41 38 41 36 37 37 36 33 33 28 24 19 18 16 10 7 9 8 5 6 6 5 4 6 6
11 12 17 22 30 27 26 27 26 26 29 32 33 33 32 33 29 35 38 35 35 36 37 39 35 34 35 27 19 18 16 15 14 10 8 11 5 7 6 3 3 4 2
12 13 16 18 19 30 32 30 29 29 33 35 36 35 32 33 35 29 33 35 35 34 38 38 34 32 30 27 21 17 15 14 14 13 12 14 9 6 4 2 1 4 6
7 12 18 19 23 28 30 27 25 25 30 35 37 36 35 33 33 32 32 34 31 32 32 35 30 30 28 27 21 18 16 12 14 20 12 9 7 6 6 5 6 10 7
12 14 18 22 19 24 29 30 27 30 30 35 37 32 33 34 32 34 34 35 34 31 33 29 29 26 24 22 21 16 18 17 17 12 9 11 11 8 9 10 10 7 1
14 17 20 26 27 24 28 29 26 26 27 32 35 34 33 34 35 34 35 38 32 30 28 30 25 25 24 24 18 14 15 14 15 14 15 14 12 14 13 12 14 12 5
23 22 22 24 26 26 27 27 25 29 32 33 30 34 34 35 35 35 35 35 30 29 29 29 27 26 26 24 20 17 15 12 10 9 10 10 10 11 12 15 13 11 5
24 24 24 25 28 28 28 28 27 30 30 30 30 30 33 33 35 34 30 32 32 28 25 27 26 24 23 21 20 18 16 13 11 10 8 8 8 10 13 15 11 11 3
27 27 29 28 27 26 29 29 25 31 30 30 28 30 35 30 35 33 28 30 28 25 24 23 23 21 24 21 18 20 19 17 15 11 10 11 10 11 13 12 12 12 4
29 30 30 30 28 29 27 26 27 32 32 30 26 26 32 30 36 33 34 32 28 27 24 21 20 21 21 22 18 20 18 18 15 13 12 11 9 11 12 10 9 9 4
29 28 29 27 23 25 26 27 28 24 25 27 24 26 29 28 32 28 33 33 30 31 27 23 21 20 22 21 19 18 16 18 17 16 15 13 11 9 11 10 6 7 3
25 25 25 25 24 26 25 24 23 25 21 18 17 18 17 21 28 25 29 27 32 31 30 23 21 20 19 18 14 15 16 24 23 22 18 14 10 8 9 9 6 6 4
24 24 23 22 23 25 23 21 25 21 18 15 16 18 16 19 27 26 31 35 34 32 28 25 22 18 16 15 15 14 18 25 24 21 16 11 8 12 11 8 8 5 5
24 22 21 22 22 22 24 23 24 24 23 21 22 24 23 22 29 37 40 38 35 35 33 28 24 22 21 18 16 16 17 17 17 18 16 14 12 11 9 8 6 7 5
20 19 22 21 20 19 21 20 28 33 35 35 36 28 29 33 39 39 38 37 35 34 29 25 22 22 22 20 17 16 16 16 16 15 14 15 12 9 9 9 8 6 5
21 20 19 19 18 18 17 14 10 20 28 33 36 39 40 45 40 37 36 34 33 31 27 23 22 23 22 20 19 18 17 15 15 15 14 11 10 9 9 7 5 5 4
21 25 20 19 21 22 16 16 15 14 4 12 44 47 47 43 37 38 37 36 24 26 28 25 23 22 23 21 19 17 19 16 14 13 13 12 12 13 11 8 5 4 4
17 20 23 22 20 22 17 15 19 18 17 27 29 35 42 40 43 40 34 30 25 26 25 24 22 20 20 21 20 19 19 16 15 15 13 13 11 11 10 8 7 4 3
19 13 10 14 15 25 18 18 19 19 24 26 28 27 38 38 27 25 28 28 27 27 26 27 24 23 24 23 21 20 18 15 14 12 12 12 10 9 9 7 4 4 4
11 16 3 17 18 27 22 20 22 26 25 25 23 25 28 28 24 25 28 28 28 29 28 26 24 21 19 17 15 14 13 13 12 12 13 12 10 9 6 5 3 3 6
17 26 28 24 27 26 25 26 26 26 26 26 27 34 34 28 26 26 27 26 27 27 26 26 24 21 18 16 14 12 13 13 11 13 13 11 8 7 8 13 15 15 15
25 26 27 28 29 31 29 27 28 27 25 25 26 26 26 26 27 29 29 29 31 29 27 27 25 23 21 20 18 17 16 14 12 11 12 14 20 21 20 18 17 17 17
31 29 27 26 26 27 26 26 26 27 27 26 26 25 26 27 28 31 33 32 31 28 26 25 24 23 23 23 22 20 17 15 16 18 22 23 22 22 23 22 21 21 21
27 28 26 25 26 26 27 26 25 26 25 25 26 26 26 29 28 29 29 29 28 26 26 25 23 22 21 20 19 17 17 19 22 21 21 22 22 20 22 22 20 19 19
26 27 25 26 26 25 25 25 24 24 24 25 25 26 27 29 30 29 28 28 29 29 28 27 27 28 27 25 22 18 17 19 21 21 23 26 27 26 26 25 23 23 23

GFSGL_925_spd_069.txt.gz
Wind_Speed
28 27 25 22 19 15 15 14 14 13 12 12 11 12 13 15 16 20 23 27 28 29 32 32 33 33 32 27 25 26 25 19 8 5 9 10 10 9 9 8 7 9 10
34 32 28 24 20 17 15 16 17 18 17 15 15 14 14 15 17 19 22 24 26 28 31 24 29 24 26 25 22 26 23 24 19 8 10 11 9 9 11 9 7 9 10
33 33 28 25 22 20 16 13 13 16 19 19 19 20 19 19 19 20 22 24 26 28 30 33 28 22 24 25 25 26 23 22 20 11 10 9 10 11 11 8 8 9 10
26 27 27 27 25 22 17 10 7 6 8 12 16 21 24 24 22 21 21 24 25 28 27 28 32 25 29 29 29 28 22 20 19 15 9 7 9 10 10 8 8 7 10
18 19 24 26 23 20 18 15 12 10 10 11 12 15 19 22 24 23 22 23 25 29 30 28 30 30 31 32 29 27 23 20 17 15 8 6 8 7 10 7 7 7 9
17 27 25 19 17 16 13 12 12 12 13 15 15 18 22 24 27 28 24 25 27 28 31 32 31 31 33 30 31 27 27 23 20 15 11 8 15 13 10 10 8 6 2
16 17 18 19 18 16 15 15 17 18 18 22 23 25 27 29 29 28 29 28 30 26 29 32 30 31 34 30 27 22 21 15 18 21 21 19 17 18 15 11 15 14 9
28 29 28 25 22 21 21 23 25 26 29 31 31 29 30 30 28 27 23 25 27 26 30 32 31 33 33 30 23 23 18 18 19 17 16 16 15 12 13 15 19 17 9
30 30 29 31 30 28 30 33 33 30 30 32 32 32 31 31 29 26 20 22 25 27 31 31 30 31 33 28 23 22 19 20 19 16 15 14 9 9 12 15 15 15 4
35 32 31 32 33 31 33 33 36 34 33 29 29 30 33 33 28 25 18 18 21 25 30 29 29 29 29 21 24 20 23 22 19 18 15 13 10 10 13 18 18 17 5
35 34 32 33 36 36 33 34 34 35 32 30 31 32 33 35 28 27 19 18 21 26 23 25 28 18 12 15 11 26 28 23 20 19 15 12 11 12 17 16 15 15 10
32 31 28 29 29 26 31 29 30 31 28 26 27 27 32 33 31 25 17 17 23 22 23 25 23 16 12 9 21 28 19 21 21 19 17 14 14 15 16 14 12 11 7
40 39 36 35 32 31 27 24 23 25 23 21 21 21 22 30 26 21 15 19 22 23 22 27 23 22 12 22 31 23 20 24 23 21 18 17 17 15 14 12 10 9 8
31 28 24 21 22 24 24 24 22 21 21 20 20 19 21 28 23 22 15 19 22 21 22 26 33 27 24 31 27 23 23 25 25 22 21 16 14 15 16 14 10 10 8
32 31 31 30 28 27 27 27 26 27 27 21 21 22 19 19 23 18 13 16 18 18 22 23 25 27 21 24 25 26 24 23 22 21 19 20 19 17 16 14 11 10 6
25 22 22 22 22 23 21 20 27 28 27 29 30 29 29 27 19 14 15 18 18 21 22 19 20 22 22 19 20 21 22 23 23 22 23 21 18 18 16 14 11 10 8
25 22 23 24 21 20 20 18 12 22 26 28 28 30 28 28 24 19 16 17 20 26 15 16 19 22 21 20 20 20 19 21 24 25 24 20 16 15 16 15 12 10 7
25 22 20 19 18 18 18 17 16 13 11 19 32 31 32 34 29 25 19 15 26 15 19 20 19 25 26 25 24 23 21 19 22 24 22 19 19 19 16 14 12 9 7
16 15 18 18 19 20 20 18 17 18 17 14 15 20 28 30 28 25 19 23 24 18 19 18 25 28 27 27 25 23 24 24 22 22 21 19 16 16 13 12 9 8 8
17 21 21 17 16 20 19 19 17 16 14 11 10 9 7 10 14 20 26 20 20 21 23 24 28 30 30 27 24 24 24 23 21 19 18 17 16 15 14 12 10 8 7
15 17 22 20 19 17 17 17 16 17 14 14 14 15 18 18 16 22 19 21 22 23 28 30 31 31 29 26 26 24 23 21 19 18 19 17 16 15 12 11 10 8 9
13 15 20 22 19 19 21 22 18 20 19 17 17 19 20 18 19 19 21 24 26 30 32 32 31 28 28 27 25 24 21 19 16 20 20 16 16 15 14 13 11 10 12
19 13 14 17 16 17 19 19 18 19 19 18 21 22 18 18 21 23 25 27 28 29 29 29 27 25 24 22 22 21 18 19 21 20 20 19 17 15 14 15 16 18 19
15 19 18 17 15 16 19 19 20 22 23 18 22 24 23 27 27 29 30 29 29 28 27 27 27 26 23 20 19 17 17 18 20 20 21 20 20 19 19 20 20 20 21
18 20 19 19 18 18 20 21 21 21 21 21 23 23 27 29 31 31 31 32 31 30 27 26 24 23 20 19 18 19 18 20 20 19 20 21 23 23 24 24 24 24 25
20 19 18 19 19 19 19 20 20 22 22 22 24 26 29 29 30 31 31 31 31 29 27 25 23 22 21 20 20 21 21 20 21 22 26 27 27 27 27 28 28 27 24

GFSGL_925_spd_072.txt.gz
Wind_Speed
27 25 22 20 18 16 14 13 13 11 10 9 8 7 6 5 5 5 6 9 12 14 16 18 23 25 26 26 24 24 24 23 12 18 17 11 8 7 5 6 7 7 8
19 24 27 24 21 20 19 17 15 13 11 9 7 7 6 5 5 6 6 8 12 15 18 20 24 23 24 25 20 25 24 26 21 17 11 9 8 8 6 7 7 7 8
17 16 22 23 23 24 22 19 16 14 14 12 10 9 9 9 9 9 9 10 12 15 19 22 25 22 25 26 15 22 25 23 26 16 9 9 9 9 8 9 8 8 8
22 24 22 23 25 25 23 20 18 15 13 11 9 8 8 10 11 12 13 14 16 17 19 22 24 24 25 25 16 24 21 17 17 16 11 10 10 9 10 10 9 8 7
15 21 29 28 28 26 24 21 16 15 14 12 9 5 4 5 6 9 12 16 18 20 21 24 25 25 25 24 26 22 25 19 19 16 12 9 8 7 10 9 10 6 5
3 12 16 20 25 25 24 22 20 17 14 12 10 8 7 7 9 12 14 18 21 22 25 26 27 26 26 25 25 26 28 22 19 18 16 9 14 13 12 12 10 5 2
19 10 10 10 18 18 18 20 20 19 15 12 10 10 11 12 14 18 21 22 24 26 24 25 27 28 27 26 26 24 24 26 26 26 22 19 16 19 17 14 14 7 5
21 23 18 20 18 16 19 21 20 19 18 16 15 16 18 19 22 25 26 27 26 25 24 23 27 29 28 26 26 25 24 21 23 23 23 10 14 9 18 18 14 10 8
24 23 19 20 24 26 26 27 26 24 22 21 21 22 22 24 24 22 25 29 29 26 24 23 26 27 26 26 24 20 17 19 20 18 10 11 10 9 16 15 14 10 3
31 27 22 24 27 29 29 29 33 32 29 27 26 25 25 25 24 26 25 28 27 25 24 24 26 24 24 26 22 18 17 17 21 14 15 12 11 13 14 14 14 12 6
32 29 28 29 32 34 33 32 33 34 30 28 27 30 30 27 26 25 24 28 26 27 27 23 29 23 25 25 16 19 17 14 14 14 16 13 14 16 15 13 10 11 11
36 34 32 31 31 30 32 30 30 31 29 28 27 28 32 32 29 27 24 28 28 25 27 24 25 22 21 16 17 13 10 12 17 17 17 16 17 15 14 13 10 10 9
35 34 31 29 31 31 30 28 26 28 25 22 21 21 21 28 31 31 28 28 29 25 24 23 19 22 16 15 21 15 16 16 17 20 16 17 16 16 15 14 11 10 9
36 35 31 31 26 22 26 27 25 23 23 21 18 18 19 21 26 30 32 26 24 20 20 19 20 17 16 20 18 16 11 9 24 23 21 16 15 17 16 15 13 13 11
30 29 31 28 31 32 31 27 25 27 30 23 22 23 19 19 26 30 29 28 20 17 11 12 12 19 20 19 15 14 13 19 22 22 21 18 16 16 14 15 12 13 7
26 27 25 24 19 20 18 17 24 26 28 29 31 28 26 29 27 25 20 21 16 13 9 13 15 19 17 17 18 15 18 21 23 23 22 18 15 14 14 14 13 10 7
21 22 22 24 22 21 19 19 14 22 27 32 33 32 30 26 26 25 20 17 16 13 15 15 16 19 20 23 17 19 21 21 25 22 20 18 21 18 17 16 11 10 8
21 23 21 22 21 20 20 19 18 16 14 19 28 31 32 29 28 27 22 17 14 18 20 16 17 20 22 21 21 21 18 21 20 20 17 22 21 23 19 16 15 11 11
14 20 15 15 18 18 17 16 17 15 12 11 10 19 26 28 28 26 25 19 15 16 20 18 19 23 21 22 21 20 21 21 21 22 23 23 21 20 18 17 14 12 13
18 21 18 19 17 15 15 14 13 13 13 14 14 16 16 18 21 27 28 24 20 19 19 19 22 24 23 24 21 19 20 20 20 21 24 20 18 20 20 18 15 13 9
9 14 12 10 14 16 16 15 14 14 14 15 15 16 22 21 19 21 22 23 22 21 22 23 24 25 23 26 24 22 23 21 21 23 22 19 19 19 18 15 12 9 11
13 14 16 15 14 14 16 17 18 17 15 15 14 19 16 19 15 17 20 20 23 24 22 20 23 26 28 28 27 26 25 23 23 23 22 23 21 19 16 14 13 12 14
13 12 13 17 17 15 18 18 18 17 16 15 13 13 19 18 18 19 20 23 23 19 15 21 27 28 27 27 26 26 24 23 23 25 25 22 20 18 17 16 16 17 18
23 24 23 20 22 23 19 19 22 19 18 14 12 8 7 16 21 23 21 21 21 19 24 29 30 30 27 25 24 24 23 24 24 23 22 23 21 19 19 19 21 24 23
19 17 15 13 14 17 19 17 17 16 17 18 17 16 17 17 22 20 20 22 26 29 30 29 29 28 26 27 26 22 20 20 23 22 22 22 23 22 23 24 23 23 24
20 19 17 16 18 19 19 18 17 18 17 19 21 22 18 18 22 29 28 30 31 30 29 28 26 26 26 25 24 22 23 22 22 23 24 25 26 27 27 27 26 24 23

GFSGL_925_spd_075.txt.gz
Wind_Speed
23 22 21 22 21 21 20 19 18 17 15 12 11 10 10 11 11 12 11 12 11 9 7 7 8 7 9 11 10 16 18 15 10 22 12 9 11 9 8 8 6 5 4
15 16 18 21 24 23 21 20 19 17 15 12 12 11 11 10 10 10 10 9 7 5 3 4 6 6 10 11 11 12 18 17 16 17 13 12 12 8 9 7 6 6 4
9 11 13 15 18 22 23 22 20 18 17 15 13 13 12 10 9 8 6 4 3 2 3 4 6 7 10 11 13 11 18 21 13 19 16 12 11 9 7 9 8 6 6
13 15 14 16 18 17 20 21 20 18 15 17 18 15 13 12 10 8 7 5 5 4 5 6 8 10 11 14 13 14 16 21 17 21 19 15 12 9 13 11 7 8 6
5 8 14 16 18 19 17 21 22 19 18 17 18 16 13 11 9 8 6 5 5 7 8 9 11 13 18 17 16 16 15 20 13 17 18 12 8 7 11 9 10 8 5
10 6 5 9 15 17 20 19 21 21 19 18 18 18 17 13 13 9 5 3 5 8 12 14 15 18 18 20 19 20 22 21 20 21 19 14 12 13 11 11 11 7 4
13 13 10 6 9 14 19 20 21 22 21 20 18 16 14 12 12 7 5 6 8 11 14 18 18 17 20 17 19 22 21 22 27 26 20 16 12 18 15 13 12 8 4
22 19 15 13 10 9 15 19 21 21 23 20 16 14 13 12 12 11 11 10 9 13 16 19 21 21 20 20 20 20 20 19 22 24 22 16 15 10 18 12 13 9 7
27 25 21 19 17 14 15 16 18 19 19 19 18 17 15 14 15 14 13 9 12 15 18 20 21 21 22 22 23 21 20 18 20 14 19 14 10 11 18 14 12 11 7
31 29 27 25 24 20 20 19 17 17 17 17 17 17 17 16 16 16 14 11 14 16 18 21 24 26 26 24 26 19 20 17 15 16 16 13 12 10 14 12 12 10 6
35 33 31 29 28 27 22 22 21 21 21 20 21 20 19 18 17 17 15 13 14 17 19 20 22 23 25 25 25 24 20 11 14 13 14 14 11 15 15 10 10 9 9
37 36 35 31 30 27 27 26 25 23 22 23 22 23 21 17 18 17 18 17 18 18 20 21 21 23 24 26 23 20 15 11 14 16 15 14 14 13 11 10 11 8 7
36 36 36 34 33 31 29 27 27 25 25 24 24 24 23 19 16 17 20 21 22 27 22 25 27 28 23 26 21 16 13 15 17 16 16 16 17 13 13 13 11 10 8
33 31 29 30 29 31 30 29 27 27 26 27 25 23 21 19 17 16 16 17 21 28 30 29 29 26 23 18 17 16 15 15 16 15 17 18 14 14 15 13 13 13 12
29 28 28 26 27 24 28 27 29 30 30 27 26 23 21 20 20 19 21 19 18 20 18 14 13 15 15 16 16 18 17 16 13 13 18 15 15 16 12 13 13 13 12
22 22 24 26 26 26 25 24 20 23 27 30 25 23 22 23 18 21 24 25 26 24 16 14 14 16 16 16 19 21 21 18 15 15 16 17 16 16 15 14 12 13 11
19 17 16 16 16 19 22 23 20 19 24 26 28 29 27 22 22 27 23 20 20 22 16 17 16 17 17 19 21 21 18 16 17 15 17 17 17 16 18 15 14 11 11
15 18 19 22 24 19 19 18 16 14 15 19 27 29 27 25 26 23 19 18 14 16 17 18 18 19 19 21 21 20 18 19 19 18 17 17 17 16 16 16 15 14 11
14 8 19 16 18 16 15 16 16 16 19 20 20 18 26 26 28 28 27 20 21 22 16 19 21 20 19 19 20 18 19 22 22 20 19 18 19 21 15 14 13 12 14
16 17 15 15 18 18 17 15 15 16 14 13 13 16 16 20 17 20 22 21 21 22 19 21 20 20 20 17 18 18 20 23 21 20 20 21 22 21 18 18 13 15 12
15 14 10 9 12 13 14 13 12 13 13 12 13 16 17 17 20 23 24 23 24 25 22 20 19 21 20 19 20 20 20 20 21 22 23 22 20 20 17 16 15 14 14
12 14 10 12 13 14 13 13 13 11 12 14 12 12 16 21 15 17 19 22 22 22 19 21 21 21 22 22 22 21 22 22 22 26 23 21 19 19 21 17 13 13 15
10 11 12 12 11 10 10 11 12 13 14 12 11 10 10 14 17 17 20 21 19 20 24 24 22 21 20 20 21 23 23 23 24 25 22 21 22 20 18 17 15 15 15
8 9 11 11 12 12 12 14 13 13 11 10 10 8 7 11 16 17 18 20 23 24 23 24 22 21 21 21 20 21 21 21 21 22 27 23 19 19 17 16 16 18 21
5 16 17 13 13 14 13 10 11 11 13 12 9 7 10 11 17 20 23 24 24 21 17 17 20 21 21 24 21 21 23 24 25 26 26 25 23 19 18 19 22 23 21
22 19 15 13 14 11 12 11 8 12 12 10 10 10 12 11 15 20 21 23 20 17 17 16 19 26 27 26 26 25 24 24 25 26 26 24 23 22 23 24 23 22 21